Other Public Products
Issued by NWS Grand Forks, ND

Home | Current Version | Previous Version | Text Only | Print | Product List | Glossary On
Versions: 1 2 3 4 5 6 7 8 9 10 11 12 13 14 15 16 17 18 19 20 21 22 23 24 25 26 27 28 29 30 31 32 33 34 35 36 37 38 39 40 41 42 43 44 45 46 47 48 49 50
000
FPUS83 KFGF 010531
OPUFGF
PRAIRIE TO PINES WEATHER ROUNDUP
NATIONAL WEATHER SERVICE EASTERN NORTH DAKOTA/GRAND FORKS ND
1200 AM CDT FRI AUG 01 2014

 **SATELLITE DATA USED TO AUGMENT SKY COVER AT AUTOMATED STATIONS**
 *****  WEATHER ACROSS EASTERN NORTH DAKOTA  *****

CITY           SKY/WX    TMP DP  RH WIND       PRES   REMARKS
GRAND FORKS    CLEAR     64  61  90 CALM      30.01R
GRAND FORKS AF CLEAR     63  63 100 NW3       30.02R
GRAND CITY NWS   N/A     66 N/A N/A MISG        N/A
BUXTON           N/A     70  67  92 S3          N/A
DEVILS LAKE    PTCLDY    64  57  77 NE3       30.03S
FARGO          CLEAR     70  60  70 S3        30.01R
WAHPETON ARPT  CLEAR     63  55  77 CALM      30.03S
$$

 *****  WEATHER ACROSS CENTRAL AND WESTERN NORTH DAKOTA  *****

CITY           SKY/WX    TMP DP  RH WIND       PRES   REMARKS
JAMESTOWN      CLEAR     63  59  87 CALM      30.04S
BISMARCK       CLEAR     68  57  68 NE6       30.05R
MINOT          CLEAR     63  55  75 CALM      30.05R
MINOT AFB      CLEAR     60  60  99 CALM      30.05R
GARRISON         N/A     64  58  80 NE3       30.06R
WILLISTON      CLEAR     70  58  65 SE7       30.04R
DICKINSON      CLEAR     63  56  78 SE10      30.05R
HETTINGER      CLEAR     67  54  63 SE7       30.07S
$$

 *****  OTHER OBSERVATIONS NORTHEAST NORTH DAKOTA  *****

CITY           SKY/WX    TMP DP  RH WIND       PRES   REMARKS
WALHALLA         N/A     59  59 100 CALM        N/A
LANGDON        FAIR      61  57  88 NE6       30.06S
CAVALIER       FAIR      66  59  77 N3        30.02F
GRAFTON        FAIR      66  64  94 NW6       30.02S
CANDO          FAIR      63  59  88 NE6       30.06R
FORT TOTTEN      N/A     64  59  83 CALM      29.95
ROLLA          CLOUDY    59  59 100 N7        30.09R
RUGBY          FAIR      63  59  88 CALM      30.05R
 ***** THE ABOVE OBSERVATIONS ARE NON NWS ARE NOT QUALITY
        CONTROLLED AND MAY MIS-REPORT RAIN FOR SNOW...
$$

 *****  OTHER OBSERVATIONS SOUTHEAST NORTH DAKOTA *****

CITY           SKY/WX    TMP DP  RH WIND       PRES   REMARKS
COOPERSTOWN    NOT AVBL
VALLEY CITY    FAIR      63  63 100 CALM      30.04S
OAKES          NOT AVBL
GWINNER          N/A     63  63 100 W7        30.05R
BUFFALO          N/A     65  60  86 W2          N/A
WYNDMERE       NOT AVBL
 ***** THE ABOVE OBSERVATIONS ARE NON NWS ARE NOT QUALITY
       CONTROLLED AND MAY MIS-REPORT RAIN FOR SNOW...
$$

  *****  WEATHER ACROSS NORTHERN MINNESOTA  *****

CITY           SKY/WX    TMP DP  RH WIND       PRES   REMARKS
FLAG ISLAND    CLEAR     72  61  68 CALM      29.99R
WARROAD        CLEAR     59  55  88 CALM      30.01R
ROSEAU           N/A     63  54  72 W3        30.01R
HALLOCK        PTCLDY    64  61  88 CALM      30.01S
THF RVR FALLS  MOCLDY    66  63  88 CALM      30.02R
HALSTAD          N/A     64  61  90 SW5         N/A
FOSSTON        CLEAR     57  54  88 CALM      30.04R HAZE
BAUDETTE       CLEAR     59  57  93 CALM      30.01R
WASKISH        CLEAR     57  55  94 CALM      30.01S
CROOKSTON      PTCLDY    64  63  94 CALM      30.02S
$$
  *****  WEATHER ACROSS CENTRAL AND WEST MINNESOTA  *****

CITY           SKY/WX    TMP DP  RH WIND       PRES   REMARKS
BEMIDJI        CLEAR     58  57  94 CALM      30.02S
PARK RAPIDS    CLEAR     62  59  90 CALM      30.03S
WADENA         CLEAR     59  57  94 CALM      30.04R
DETROIT LAKES  CLEAR     64  63  94 CALM      30.05S
MOORHEAD       CLEAR     68  64  88 SW3       30.03R
FERGUS FALLS   CLEAR     66  57  72 CALM      30.03S
ELBOW LAKE     FAIR      65  62  89 CALM      30.04R
MORRIS MN      CLEAR     63  61  94 W3        30.03S
STAPLES        CLEAR     61  57  88 W1        30.04R
WHEATON        CLEAR     63  57  82 CALM      30.05S
$$
  *****  WEATHER ELSEWHERE ACROSS MINNESOTA  *****

CITY           SKY/WX    TMP DP  RH WIND       PRES   REMARKS
DULUTH         PTCLDY    61  56  83 CALM      30.01R
INTRNTL FALLS  CLEAR     53  51  93 CALM      30.00R
ELY            CLEAR     52  50  93 CALM      30.01S
CLOQUET        CLEAR     57  55  94 NW3       30.02R
BRAINERD       PTCLDY    61  60  97 CALM      30.03R
HIBBING        CLEAR     55  52  89 NW3       30.01R FOG
ALEXANDRIA     CLEAR     66  61  84 SW3       30.06R
SAINT CLOUD    CLEAR     64  58  80 CALM      30.02R
MINNEAPOLIS    CLEAR     71  59  65 CALM      30.02R
$$

  *****  WEATHER ACROSS SOUTH DAKOTA  *****

CITY           SKY/WX    TMP DP  RH WIND       PRES   REMARKS
SIOUX FALLS    CLEAR     61  58  90 CALM      30.07R
BROOKINGS      NOT AVBL
WATERTOWN      CLEAR     63  55  75 CALM      30.07S
HURON          CLEAR     63  58  83 CALM      30.05S
SISSETON         N/A     61  59  93 CALM      30.03R
ABERDEEN       CLEAR     57  55  93 SE3       30.05R
MITCHELL       CLEAR     67  61  81 S8        30.06S
PIERRE         CLEAR     69  59  70 SE9       30.05R
MOBRIDGE       CLEAR     66  58  75 SE8       30.03R
RAPID CITY     PTCLDY    60  52  74 W8        30.13S
$$

  *****  SOME WEATHER IN NEARBY STATES *****

CITY           SKY/WX    TMP DP  RH WIND       PRES   REMARKS
GLASGOW MT     MOCLDY    79  48  33 NE5       30.00S
GREAT FALLS MT MOCLDY    65  45  48 W6        30.13R
CHEYENNE WY    CLEAR     61  49  64 W5        30.31S
SCOTTSBLUFF NE CLEAR     63  51  65 E5        30.19S
OMAHA NE       MOCLDY    71  60  68 SE8       30.06R
DES MOINES IA  PTCLDY    65  61  87 CALM      30.06R
DAVENPORT IA   CLEAR     61  59  93 CALM      30.06S
CHICAGO IL     CLEAR     68  57  68 SW6       30.04S
EAU CLAIRE WI  MOCLDY    68  61  78 SW7       30.00S
LA CROSSE WI   CLEAR     68  63  84 S6        30.02R
$$

  *****  SOME NATIONAL WEATHER *****

CITY           SKY/WX    TMP DP  RH WIND       PRES   REMARKS
LA GUARDIA NY  PTCLDY    75  64  68 S6        30.14R
RALEIGH NC     LGT RAIN  70  67  90 CALM      30.17S FOG
ATLANTA GA     CLOUDY    66  64  94 E10       30.08F
NEW ORLEANS LA CLOUDY    80  69  69 E3        30.00F
OKLAHOMA CITY  PTCLDY    70  65  84 NE3       30.09S
ALBUQUERQUE NM CLOUDY    66  53  63 E17       30.27R
SALT LAKE CITY MOCLDY    73  53  49 SE3       30.13R
LOS ANGELES CA PTCLDY    67  61  81 W9        29.91R
BOISE ID       PTCLDY    82  44  26 E12G18    30.03F
SEATTLE WA     CLEAR     76  48  37 NE7       30.04S
$$

*** WEATHER ACROSS MANITOBA...SASKATCHEWAN AND ONTARIO ***
                ***ONTARIO***

CITY           SKY/WX    TMP DP  RH WIND       PRES   REMARKS
GERALDTON      MOCLDY    52  52 100 NW5       29.98S
THUNDER BAY    MOCLDY    59  55  88 E5        30.00
SIOUX LOOKOUT  CLEAR     50  50 100 NE2       30.01R
TORONTO        MOCLDY    66  57  72 SW6       30.05S
BIG TROUT LK   MOCLDY    54  48  82 NE3       30.01S
PICKLE LAKE    NOT AVBL
DRYDEN         CLEAR     61  50  67 N5        30.00
KENORA         PTCLDY    64  54  68 E5        30.02R
$$
                *** MANITOBA***

CITY           SKY/WX    TMP DP  RH WIND       PRES   REMARKS
BRANDON        CLEAR     61  59  94 N3        30.07R
DAUPHIN        CLEAR     61  59  94 SW6       30.04R
ISLAND LAKE    PTCLDY    57  52  82 CALM      30.03F
PILOT MOUND      N/A     61  55  82 NE6         N/A
THE PAS        CLEAR     63  61  94 SE2       30.00R
THOMPSON       MOCLDY    63  55  77 SE5       30.00S
WINNIPEG       PTCLDY    61  57  88 NW3       30.02S
LYNN LAKE      MOCLDY    68  59  73 NW14G22   30.02R
CHURCHILL      CLEAR     57  50  77 S10       30.01S
GILLAM         CLOUDY    57  52  82 SE6       30.02F
$$
                ***SASKATCHEWAN***

CITY           SKY/WX    TMP DP  RH WIND       PRES   REMARKS
ESTEVAN        PTCLDY    63  59  88 E5        30.07R
KINDERSLEY     MOCLDY    64  63  94 NE8       30.07
LLOYDMINSTER   CLEAR     70  61  73 S3        30.10S
PRINCE ALBERT  MOCLDY    61  61 100 CALM      30.06R
REGINA         CLEAR     68  61  77 E7        30.06R
YORKTON        NOT AVBL


USA.gov is the U.S. government's official web portal to all federal, state and local government web resources and services.